[ hide orbit diagram ]
For accurate long-term ephemerides, please instead use our Horizons system.This orbit viewer was implemented using two-body methods, and hence should not be used for determining accurate long-term trajectories (over several years or decades) or planetary encounter circumstances.
Orbital Elements at Epoch 2459000.5 (2020-May-31.0) TDB
Reference: JPL 11 (heliocentric ecliptic J2000)
Element | Value | Uncertainty (1-sigma) | Units |
e | .09212899199868946 | 4.8393e-08 | |
a | 2.564754647674826 | 1.706e-08 | au |
q | 2.328466387260591 | 1.2331e-07 | au |
i | 1.049006416363728 | 4.1562e-06 | deg |
node | 122.3399400220275 | 0.00037312 | deg |
peri | 159.7309524315424 | 0.00037486 | deg |
M | 59.11188121333937 | 3.6265e-05 | deg |
tp | 2458754.157442922742 (2019-Sep-27.65744292) | 0.00015176 | TDB |
period | 1500.262193107131 4.11 | 1.4969e-05 4.098e-08 | d yr |
n | .2399580564344015 | 2.3943e-09 | deg/d |
Q | 2.801042908089062 | 1.8632e-08 | au |
|
| | Orbit Determination Parameters
Additional Information
|
[ show covariance matrix ]
Physical Parameter Table
Parameter |
Symbol |
Value |
Units |
Sigma |
Reference |
Notes |
absolute magnitude |
H |
17.0 |
|
n/a |
MPO436956 |
|
|
193457 (2000 XJ2) Discovered 2000-Dec-01 by Bohyunsan at Bohyunsan |
Reference: 20081113/Numbers.arc | Last Updated: 2008-11-17 |
|
[ hide close-approach data ]
Close-Approach Data ...sorted by Date/Time (TDB)
|
Date/Time (TDB) |
Time Uncertainty (days_HH:MM) |
Body |
Nominal Distance (au) |
Minimum Distance (au) |
Maximum Distance (au) |
V-relative (km/s) |
V-infinity (km/s) |
JD (TDB) |
Time Uncertainty (minutes) |
Semi-major axis (km) |
Semi-minor axis (km) |
range-LOV angle (deg) |
N-sigma |
BP |
Orbit Ref. |
Reference |
Modified |
2069-Feb-04 12:34 |
00:02 |
Thisb |
0.0262974583634698 |
0.0262852819797079 |
0.0263096637481284 |
2.66814096132472 |
2.66814086415024 |
2476782.023341194 |
2.07552908207075 |
1509.44524088072 |
59.6793096989989 |
-66.3903512659325 |
60334.5333690321 |
T |
11 |
CATAB v2.0f-lin.ifort 2020-Dec-17 23:39:29 |
2020-Dec-17 23:39 |
2124-Nov-05 20:05 |
00:21 |
Europ |
0.0419315603029283 |
0.0418997243899958 |
0.0419634023928717 |
2.66183877985015 |
2.6618386846256 |
2497144.336692124 |
21.3119438592446 |
1776.31506057763 |
63.3446298798179 |
26.8440633216401 |
44759.4707366203 |
T |
11 |
CATAB v2.0f-lin.ifort 2020-Dec-17 23:39:29 |
2020-Dec-17 23:39 |
|
|